Location: El Limón
(10.3059°N, 67.6321°W)
Time: 17:39:56
(UTC+00:00)

Nadezhda 2 Rocket - Pass Details

Date: 23 December 2025
Orbit: 946 x 1011 km, 83.0° (Epoch: 11 January)

Event Time Altitude Azimuth Distance (km) Brightness Sun altitude
Rises 23:19:28 0° 327° (NNW) 3,615 7.6 -15.3°
Reaches altitude 10° 23:22:52 10° 308° (NW) 2,679 7.2 -16.1°
Maximum altitude 23:26:36 17° 270° (W) 2,230 7.3 -17.0°
Drops below altitude 10° 23:30:22 10° 231° (SW) 2,703 8.0 -17.8°
Sets 23:33:52 0° 212° (SSW) 3,663 8.4 -18.6°
